Location: Unspecified
(0.0000°N, 0.0000°E)
Time: 23:03:31
(UTC+00:00)

STRAND 1 - Visible Passes

Search period start: 11 August 2020 00:00
Search period end: 21 August 2020 00:00
Orbit: 767 x 782 km, 98.5° (Epoch: 11 August)

Date Brightness Start Highest point End Pass type
(mag) Time Alt. Az. Time Alt. Az. Time Alt. Az.
11 Aug ? 19:36:18 10° NNW 19:40:54 35° WNW 19:45:32 10° SW visible
12 Aug ? 19:01:51 10° NNE 19:06:57 86° ESE 19:12:05 10° S visible
13 Aug ? 18:28:30 10° NE 18:33:01 32° ESE 18:37:33 10° SSE visible
13 Aug ? 20:09:09 10° NW 20:11:55 15° WNW 20:14:42 10° WSW visible
14 Aug ? 19:33:17 10° N 19:37:59 38° WNW 19:42:43 10° SW visible
15 Aug ? 18:58:57 10° NNE 19:04:02 80° E 19:09:10 10° S visible
16 Aug ? 18:25:42 10° NE 18:30:06 30° ESE 18:34:32 10° SSE visible
16 Aug ? 20:05:58 10° NW 20:09:00 16° WNW 20:12:04 10° WSW visible
17 Aug ? 19:30:18 10° N 19:35:04 42° WNW 19:39:53 10° SSW visible
18 Aug ? 18:56:03 10° NNE 19:01:07 74° ESE 19:06:15 10° S visible
19 Aug ? 18:22:54 10° NE 18:27:12 28° ESE 18:31:30 10° SSE visible
19 Aug ? 20:02:48 10° NW 20:06:06 17° WNW 20:09:25 10° WSW visible
20 Aug ? 19:27:18 10° N 19:32:09 45° WNW 19:37:03 10° SSW visible
